千帆星座-67 (QIANFAN-67)

导读

QIANFAN-67 是中国“北斗”卫星导航系统的一部分,属于北斗三号系统的地球静止轨道卫星。该卫星由中国自主研发,主要用于提供高精度定位、导航和授时服务,增强北斗系统在全球范围内的覆盖与稳定性。QIANFAN-67 于2023年成功发射,具备抗干扰能力强、信号稳定等优点,广泛应用于交通、农业、通信、应急救援等多个领域,对推动国家信息化建设和提升国际竞争力具有重要意义。

Basic Information
目录编号:
62797
目录名称:
QIANFAN-67
国际标识:
2025-016N
轨道中心:
EARTH
卫星名称:
千帆星座-67
卫星全名:
千帆星座-67 (QIANFAN-67)
卫星状态:
在轨 (已飞行551 天)
发射日期:
2025-01-23 UTC
国别 :
中国 (CN)
星等 :
--
Orbit Information
数据来源 国际轨道数据 AOE轨道数据
星历时间 2026-07-28T05:57:58+0800
7小时前
查看轨道信息
2026-07-23T22:00:00+0800
4天前
查看轨道信息
半长轴 7446.628km 7446.636km
偏心率 0.001681 0.0016345
轨道倾角 88.969° 88.972°
近地点辐角 52.899° 65.234°
升交点赤经 79.478° 79.928°
平近点角 307.369° 118.444°
近地点 1055.973km 1056.327km
远地点 1081.009km 1080.671km
周期 106.586分钟 106.586分钟
每日圈数 13.510248 13.510226
Detailed Information
卫星平台:
67
覆盖范围:
全球
运营商:
上海垣信卫星科技有限公司
运营商所在国:
中国
使用方式:
暂无
Satellite Introduction
千帆星座,也被称为“G60星链”计划,是中国版“星链”的重要组成部分,旨在打造一个由1.4万多颗低轨宽频多媒体卫星构成的庞大星座。千帆星座计划由上海垣信卫星科技有限公司负责实施,于2023年启动建设。该项目是我国第二个低轨卫星大星座,旨在通过构建庞大的卫星网络,为全球用户提供高质量的通信和宽带互联网服务。
2D Orbit Map
3D Orbit Map
Orbit Altitude Analysis Chart
Orbit Inclination Analysis Chart
Orbit Comprehensive Analysis Chart
View Comprehensive Chart